NILESAT 201

Last updated on Thu Aug 13 2026 00:02:58 GMT+0000 (Coordinated Universal Time)

1 36830U 10037A 26224.28554219 -.00000075 00000+0 00000+0 0 9994 2 36830 0.0470 252.4768 0005590 267.2272 256.8543 1.00273033 58931
UTC large
Height (km)
Speed (km/s)
/
Latitude / Longitude
Inclination (degrees)
Orbital Period (minutes)
Azimuth
Elevation
Range (km)
Doppler Factor

Next 0 passes for location: London (51.5072 / 0.1276)

No passes found over London.
NILESAT 201